STARLINK-1316, 45415

Orbit data source: Space-Track

STARLINK-1316, 45415 is a payload satellite owned by SpaceX/Seattle (US) in LEO that was launched on Wed, 18 Mar 2020 UTC via an FALCON 9 launch vehicle from the Air Force Eastern Test Range (AFETR). Payload-class satellites include a variety of spacecraft equipped with specific instruments for various scientific and technological missions. These include communications satellites like Starlink; space stations such as the ISS; scientific satellites like the Hubble; Earth observation satellites from companies like Planet Labs, Umbra, and HawkEye 360; GPS; miniature CubeSats for education and research; and military/defense satellites.

Loading next visibility...
Identifier
45415, 2020-019BH
Orbit
LEO
Country
Flag of USUS
Related business
Manufacturer
SpaceX/Seattle
Mission
Partially operational Commercial Communications
Bus & Motor
STARLINK, Unknown motor
Mass
260 kg wet, ~248 kg dry
Launch date (UTC)
2020-03-18 (6 years ago)
Launch vehicle
FALCON 9
Launch site
Air Force Eastern Test Range (AFETR)
Object type
Payload
Rocket body
Debris
Shape & HBR
Box + 1 Pan, 10.1 m
Radar Cross Section
13.562 m², Large (>1 m²)

Expand to show TLE details & history
Last TLE update: 11 hours ago

TLE from 11 hours ago
0 STARLINK-1316
1 45415U 20019BH  26169.86193155  .00033288  00000-0  83356-3 0  9995
2 45415  53.1552  15.9617 0004444 119.1300 241.0150 15.39795622345534
Epoch: 2026-06-18T20:41Z
TLE epoch observation values (Epoch: 2026-06-18T20:41:10.885Z)
Latitude
-0.00006°
Longitude
158.56713°
Altitude
449.087 km
Speed
7.643 km/s
True Right ascension
01h 03m 50s
True Declination
0° 00' 00"
Sunlit
Object was in daylight at epoch
Visualization orbit readout
Latitude
Unknown
Longitude
Unknown
Altitude
Unknown
Speed
Unknown
Apparent Right ascension
Unknown
Apparent Declination
Unknown
Sunlit
N/A
Visualization observer readout
Local Sidereal Time
18:00:54
Azimuth
Unknown
Elevation
Unknown
Doppler factor
Unknown
Orbital elements
Apogee altitude
450.004 km
Perigee altitude
443.938 km
Semi-major axis
6,825.108 km
Eccentricity
0.00044
Inclination
53.1552°
RAAN
15.9617°
Arg. of periapsis
119.13°
True anomaly
240.97047°
Mean anomaly
241.015°
Eccentric anomaly
240.99273°
Mean motion
3.84927 °/min
Orbital period
93.52 mins
BSTAR
0.00083356
Loading maneuver chart data...
Computing Atmospheric mass density...

Documentation

Showing up to 5 results
|